Location: Gazon
(48.1318°N, 1.2708°W)
Time: 23:05:08
(UTC+00:00)

Cosmos 1536 Rocket - Pass Details

Date: 18 September 2020
Orbit: 606 x 632 km, 82.5° (Epoch: 25 October)

Event Time Altitude Azimuth Distance (km) Brightness Sun altitude
Rises 20:09:04 0° 347° (NNW) 2,915 7.6 -19.9°
Reaches altitude 10° 20:11:19 10° 345° (NNW) 2,007 6.7 -20.2°
Maximum altitude 20:15:43 63° 265° (W) 701 4.0 -20.9°
Enters shadow 20:18:26 23° 189° (S) 1,356 5.1 -21.3°
